NOAA 2 [-]

Last updated on Thu Feb 01 2018 00:19:14 GMT+0000 (Greenwich Mean Time)

1 06235U 72082A 18031.50500666 -.00000043 00000-0 80579-5 0 9998 2 06235 101.7191 358.1541 0003734 267.9691 201.8964 12.53100501 72043
UTC large
Height (km)
Speed (km/s)
/
Latitude / Longitude
Inclination (degrees)
Orbital Period (minutes)
Azimuth
Elevation
Range (km)
Doppler Factor

Next 0 passes for location: London (51.5072 / 0.1276)

Sorry there are no passes over London.